Location: Eschentzwiller
(47.7125°N, 7.3981°E)
Time: 04:10:45
(UTC+00:00)

CZ-4 R/B - Pass Details

Date: 27 October 2020
Orbit: 532 x 598 km, 97.7° (Epoch: 01 December)

Event Time Altitude Azimuth Distance (km) Brightness Sun altitude
Rises 18:58:37 0° 202° (SSW) 2,704 5.0 -27.1°
Reaches altitude 10° 19:01:13 10° 220° (SW) 1,806 4.3 -27.6°
Maximum altitude 19:04:04 19° 267° (W) 1,309 3.9 -28.1°
Drops below altitude 10° 19:06:56 10° 315° (NW) 1,801 4.6 -28.5°
Sets 19:09:31 0° 333° (NNW) 2,693 5.4 -28.9°
